Location: Chin
(49.7667°N, 112.4500°W)
Time: 12:23:23
(UTC+00:00)

N. Korean satellite - Pass Details

Date: 02 December 2021
Orbit: 447 x 490 km, 97.3° (Epoch: 27 January)

Event Time Altitude Azimuth Distance (km) Brightness Sun altitude
Rises 00:42:27 0° 200° (SSW) 2,538 10.9 -11.0°
Reaches altitude 10° 00:44:55 10° 217° (SW) 1,655 10.2 -11.3°
Maximum altitude 00:47:36 20° 267° (W) 1,153 9.5 -11.7°
Drops below altitude 10° 00:50:18 10° 316° (NW) 1,645 9.6 -12.1°
Sets 00:52:45 0° 334° (NNW) 2,518 10.3 -12.5°
